Regional Weather Roundup
Issued by NWS Charleston, SC

Current Version | Previous Version | Graphics & Text | Print | Product List | Glossary On
Versions: 1 2 3 4 5 6 7 8 9 10 11 12 13 14 15 16 17 18 19 20 21 22 23 24 25 26 27 28 29 30 31 32 33 34 35 36 37 38 39 40 41 42 43 44 45 46 47 48 49 50
000 ASUS42 KCHS 270011 RWRCHS REGIONAL WEATHER ROUNDUP NATIONAL WEATHER SERVICE CHARLESTON SC 700 PM EST THU FEB 26 2015 NOTE: "FAIR" INDICATES FEW OR NO CLOUDS BELOW 12,000 FEET WITH NO SIGNIFICANT WEATHER AND/OR OBSTRUCTIONS TO VISIBILITY. NOT ALL STATIONS ARE QUALITY CONTROLLED BY THE NATIONAL WEATHER SERVICE. USE DATA WITH CAUTION...ESPECIALLY DEWPOINT OBSERVATIONS. SCZ027-030-031-034>040-042>050-270100- ...SOUTHEAST SOUTH CAROLINA... CITY SKY/WX TMP DP RH WIND PRES REMARKS N CHARLESTON CLOUDY 41 36 82 N7 30.07R 6HR MIN TEMP: 41; 6HR MAX TEMP: 43; WATERFRONT PRK NOT AVBL MOUNT PLEASANT LGT RAIN 43 36 75 NW6 30.07R PINOPOLIS N/A 43 37 81 N9 29.95R MONCKS CORNER CLOUDY 43 36 75 CALM 30.06R SUMMERVILLE NOT AVBL BEAUFORT MCAS CLOUDY 45 38 76 N8 30.06R 6HR MIN TEMP: 45; 6HR MAX TEMP: 51; BEAUFORT ARPT CLOUDY 45 41 87 CALM 30.06R HILTON HEAD IS CLOUDY 46 37 71 N9 30.05R WALTERBORO CLOUDY 43 39 87 CALM 30.08R ALLENDALE CLOUDY 45 39 81 CALM 30.05R ...SOUTHERN MIDLANDS AND PEE DEE... CITY SKY/WX TMP DP RH WIND PRES REMARKS GEORGETOWN NOT AVBL KINGSTREE NOT AVBL ORANGEBURG CLOUDY 42 35 76 E5 30.05R 6HR MIN TEMP: 42; 6HR MAX TEMP: 44; BARNWELL CLOUDY 45 41 87 CALM 30.05R AIKEN CLOUDY 43 37 81 N3 30.06R MANNING CLOUDY 41 37 87 N3 30.07R COLUMBIA CLOUDY 44 35 70 NE3 30.05R 6HR MIN TEMP: 42; 6HR MAX TEMP: 44; SUMTER CLOUDY 40 34 79 N6 30.04R WCI 36 6HR MIN TEMP: 39; 6HR MAX TEMP: 42; FLORENCE CLOUDY 40 33 76 N6 30.06R WCI 36 6HR MIN TEMP: 40; 6HR MAX TEMP: 41; MYRTLE BEACH CLOUDY 39 34 81 N9 30.06R WCI 33 N MYRTLE BEACH CLOUDY 39 34 82 N7 30.05R WCI 34 6HR MIN TEMP: 39; 6HR MAX TEMP: 41; $$ GAZ063-065-086>088-099>101-113>116-118-119-134>141-150-270100- ...SOUTHEAST GEORGIA... CITY SKY/WX TMP DP RH WIND PRES REMARKS SAVANNAH ARPT CLOUDY 47 39 74 N6 30.05R 6HR MIN TEMP: 44; 6HR MAX TEMP: 50; HUNTER AAF CLOUDY 48 39 70 N8 30.02R 6HR MIN TEMP: 46; 6HR MAX TEMP: 50; FORT STEWART CLOUDY 47 40 76 N5 30.03R 6HR MIN TEMP: 45; 6HR MAX TEMP: 48; STATESBORO CLOUDY 45 39 81 NW3 30.05R SYLVANIA CLOUDY 45 40 83 N5 30.06R CLAXTON CLOUDY 45 41 87 NW3 30.06R ...CSRA...CENTRAL AND FAR SOUTHEAST GEORGIA... CITY SKY/WX TMP DP RH WIND PRES REMARKS THOMSON CLOUDY 45 43 94 CALM 30.08R AUGUSTA-BUSH CLOUDY 45 37 73 NW6 30.05R 6HR MIN TEMP: 44; 6HR MAX TEMP: 47; AUGUSTA-DANIEL CLOUDY 46 36 68 N5 30.05R SWAINSBORO CLOUDY 46 34 61 CALM 30.05R VIDALIA CLOUDY 46 41 81 CALM 30.04R EASTMAN CLOUDY 47 42 83 CALM 30.06R HAZLEHURST CLOUDY 47 43 86 CALM 30.04R ALMA CLOUDY 46 38 73 N5 30.05R 6HR MIN TEMP: 46; 6HR MAX TEMP: 48; WAYCROSS CLOUDY 50 42 74 N8 30.05R JESUP CLOUDY 50 43 76 CALM 30.06R BAXLEY CLOUDY 46 41 81 N7 30.05R BRUNSWICK CLOUDY 48 37 66 N5 30.06R SAINT SIMONS CLOUDY 48 39 71 N8 30.05R 6HR MIN TEMP: 48; 6HR MAX TEMP: 55; $$ SCZ027-028-034-036>038-045-046-048>050-GAZ119-141-270100- ...LAKE AND SUPPLEMENTAL COASTAL OBSERVATIONS... STATION/POSITION TIME TEMP WIND PRES WAVE SWELL AIR SEA DIR/SP/G HT/PER HT/PER/DIR (UTC) (F) (DEG/KT/KT) (MB) (FT/S) (FT/S/D) UPR LAKE MARION NOT AVBL WINYAH BAY NOT AVBL LAKE MURRAY 2300 43 40/ 2/ 4 1016.3R ACE BASIN NERRS NOT AVBL FORT PULASKI 2300 49 49 340/ 9/ 10 1016.5R SAPELO ISLAND 2300 48 330/ 8 1016.0R $$ ANZ835-935-AMZ111-154-330-350-352-354-370-450-454-472-270100- ...C-MAN AND BUOY OBSERVATIONS... STATION/POSITION TIME TEMP WIND PRES WAVE SWELL AIR SEA DIR/SP/G HT/PER HT/PER/DIR (UTC) (F) (DEG/KT/KT) (MB) (FT/S) (FT/S/D) BUOY 41004 2350 45 66 350/ 14/ 19 1016.4R 6/ 8 5/ 8 BUOY 41008 2350 48 52 350/ 10/ 12 1017.1R 2/11 2/100/11 FOLLY BEACH CMAN 0000 41 340/ 8/ 11 1018.4R CAPERS NEARSHORE NOT AVBL FRIPP NEARSHORE 2300 45 20/ 16/ 17 1015.8R STATION/POSITION TIME TEMP WIND PRES WAVE SWELL AIR SEA DIR/SP/G HT/PER HT/PER/DIR (UTC) (F) (DEG/KT/KT) (MB) (FT/S) (FT/S/D) 5E ST. MARYS GA 2321 54 N/A 3/11 2/120/11 FRYING PAN BUOY 2350 42 58 350/ 16/ 19 1016.8R 8/11 7/170/11 BUOY 41025 NOT AVBL CAPE LOOKOUT NC 0000 37 340/ 17/ 21 1015.9R BUOY 41002 2350 64 70 290/ 16/ 23 1013.3R 13/11 11/230/11 BUOY 41010 2320 67 74 340/ 12/ 14 1013.5R ST AUGUSTINE FL 0000 53 10/ 13/ 15 1016.7R $$

USA.gov is the U.S. government's official web portal to all federal, state and local government web resources and services.